Regional Weather Roundup
Issued by NWS Goodland, KS

Home | Current Version | Previous Version | Text Only | Print | Product List | Glossary On
Versions: 1 2 3 4 5 6 7 8 9 10 11 12 13 14 15 16 17 18 19 20 21 22 23 24 25 26 27 28 29 30 31 32 33 34 35 36 37 38 39 40 41 42 43 44 45 46 47 48 49 50
000
ASUS43 KGLD 310008
RWRGLD

GOODLAND FORECAST AREA HOURLY WEATHER ROUNDUP
NATIONAL WEATHER SERVICE GOODLAND KS
600 PM MDT MON MAR 30 2015

...OFFICIAL OBSERVATIONS...

CITY           SKY/WX    TMP DP  RH WIND       PRES   REMARKS
GOODLAND KS    SUNNY     75  17  11 N10       30.01R
HILL CITY KS   SUNNY     78  20  11 N17       29.94R
IMPERIAL NEB     N/A     74  22  14 N16       30.00S
MCCOOK NEB     SUNNY     78  16   9 NW14      29.95S
AKRON CO       SUNNY     68  19  15 NE10      30.06S
BURLINGTON CO  SUNNY     73  13  10 N13       30.04S
LIMON CO       SUNNY     69  15  12 N8        30.07F
$$

...UNOFFICIAL OBSERVATIONS...

CITY           SKY/WX    TMP DP  RH WIND       PRES   REMARKS
COLBY KS       SUNNY     75  30  19 N9        30.00S
GOVE KS          N/A     78  32  18 MISG        N/A
LENORA KS        N/A     76  32  20 MISG        N/A
NORTON KS      SUNNY     75  10   8 N7        29.94S
SHARON SPRINGS   N/A     75  17  11 N9          N/A
TRIBUNE KS     CLOUDY    79  39  24 N12       30.03R
KIT CARSON CO    N/A     73  21  14 MISG        N/A
YUMA CO          N/A     71  20  14 NE14        N/A
$$



USA.gov is the U.S. government's official web portal to all federal, state and local government web resources and services.